SCOUT X-4 R/B, 721

Orbit data source: Space-Track

SCOUT X-4 R/B, 721 is space debris in LEO originally from a launch on Thu, 19 Dec 1963 UTC launched from the Air Force Western Test Range (AFWTR). Debris objects in space refer to the collection of defunct objects orbiting the Earth. Examples of debris include non-operational satellites, rocket bodies, and fragments generated from explosions, collisions, or faulty payload assembly.

Loading next visibility...
Identifier
721, 1963-053B
Orbit
LEO
Country
Flag of USUS
Related business
Manufacturer
ABL
Mission
Spacecraft
Bus & Motor
ALTAIR, Unknown motor
Mass
68 kg wet, 33 kg dry
Launch date (UTC)
1963-12-19 (62 years ago)
Launch vehicle
Unknown
Launch site
Air Force Western Test Range (AFWTR)
Object type
Payload
Rocket body
Debris
Shape & HBR
Cyl, 0.8 m
Radar Cross Section
0.687 m², Medium (>0.1 m² and < 1m²)

Expand to show TLE details & history
Last TLE update: 18 hours ago

TLE from 18 hours ago
0 SCOUT X-4 R/B
1 00721U 63053B   25260.78220315  .00000402  00000-0  23936-3 0  9992
2 00721  78.6064  19.5785 1087971 234.0687 115.4648 12.54915028815887
Epoch: 2025-09-17T18:46Z
TLE epoch observation values (Epoch: 2025-09-17T18:46:22.352Z)
Latitude
0.00004°
Longitude
101.03216°
Altitude
1,882.651 km
Speed
6.751 km/s
True Right ascension
01h 18m 18s
True Declination
0° 00' 00"
Sunlit
Object was in full shadow at epoch
Visualization orbit readout
Latitude
Unknown
Longitude
Unknown
Altitude
Unknown
Speed
Unknown
Apparent Right ascension
Unknown
Apparent Declination
Unknown
Sunlit
N/A
Visualization observer readout
Local Sidereal Time
05:58:46
Azimuth
Unknown
Elevation
Unknown
Doppler factor
Unknown
Orbital elements
Apogee altitude
2,292.23 km
Perigee altitude
590.727 km
Semi-major axis
7,819.616 km
Eccentricity
0.1088
Inclination
78.6064°
RAAN
19.5785°
Arg. of periapsis
234.0687°
True anomaly
126.03794°
Mean anomaly
115.4648°
Eccentric anomaly
120.81821°
Mean motion
3.13881 °/min
Orbital period
114.69 mins
BSTAR
0.00023936
Loading maneuver chart data...
Computing Atmospheric mass density...
Loading historical data...
Loading historical data...
Loading historical data...
Loading historical data...
Loading historical data...
Loading historical data...
Loading historical data...

Documentation

Showing up to 5 results
|